Flag for U.S.A. Weather past 2 weeks in Furnace Creek (Death Valley), California, U.S.A.

Now
48 °F

Mostly cloudy.


Feels Like: 45 °F
Forecast: 54 / 76 °F
Wind: 7 mph from East

Location: Desert Rock Airport

Current Time: Jan 30, 2015 at 5:08:34 PM

Latest Report: Jan 30, 2015 at 3:52 PM


Visibility: 10 mi

Pressure: 29.82 "Hg

Humidity: 83%

Dew point: 43 °F

Location of Furnace Creek (Death Valley)Location

Historic Weather in Furnace Creek (Death Valley) — Graph

°F

Furnace Creek (Death Valley) temperature yesterday

Maximum temperature yesterday: 61 °F (at 2:52 PM)
Minimum temperature yesterday: 51 °F (at 1:52 AM)
Average temperature yesterday: 55 °F

Past Weeks' High & Low Weather Summary

 TemperatureHumidityPressure
High71 °F (Jan 25, 1:52 PM)97% (Jan 28, 5:52 AM)30.35 "Hg (Jan 28, 5:52 AM)
Low32 °F (Jan 16, 5:52 AM)7% (Jan 23, 1:52 PM)29.82 "Hg (Jan 30, 2:52 PM)
Average50 °F42%30.16 "Hg
* Reported Jan 15 3:52 PM — Jan 30 3:52 PM, Furnace Creek (Death Valley), Weather by CustomWeather, © 2014

Note: Actual official high and low records may vary slightly from our data, if they occured in-between our weather recording intervals... More about our weather records

Advertising

Furnace Creek (Death Valley) weather history for previous 24 hours

 ConditionsComfort  
Time TempWeatherWind HumidityBarometerVisibility
3:52 PM
Jan 30
48 °FMostly cloudy.7 mph83%29.82 "Hg10 mi
2:52 PM49 °FMostly cloudy.5 mph84%29.82 "Hg10 mi
1:52 PM48 °FLight rain. Overcast.6 mph89%29.83 "Hg10 mi
12:52 PM49 °FLight rain. Overcast.9 mph84%29.85 "Hg10 mi
11:52 AM50 °FMostly cloudy.8 mph77%29.86 "Hg10 mi
10:52 AM50 °FCloudy.12 mph80%29.90 "Hg10 mi
9:52 AM49 °FOvercast.10 mph80%29.92 "Hg10 mi
8:52 AM49 °FMore clouds than sun.10 mph80%29.93 "Hg10 mi
7:52 AM48 °FMostly cloudy.9 mph83%29.93 "Hg10 mi
6:52 AM48 °FLight rain. Overcast.12 mph83%29.93 "Hg10 mi
5:52 AM48 °FMostly cloudy.12 mph80%29.93 "Hg10 mi
4:52 AM49 °FLight rain. Overcast.8 mph77%29.93 "Hg10 mi
3:52 AM50 °FOvercast.13 mph68%29.94 "Hg10 mi
2:52 AM51 °FOvercast.10 mph66%29.96 "Hg10 mi
1:52 AM51 °FPassing clouds.7 mph66%29.98 "Hg10 mi
12:52 AM51 °FMostly cloudy.9 mph71%30.01 "Hg10 mi
11:52 PM
Jan 29
53 °FMostly cloudy.8 mph59%30.03 "Hg10 mi
10:52 PM53 °FMostly cloudy.9 mph59%30.03 "Hg10 mi
9:52 PM53 °FOvercast.9 mph59%30.03 "Hg10 mi
8:52 PM53 °FPassing clouds.10 mph59%30.03 "Hg10 mi
7:52 PM53 °FClear.10 mph59%30.03 "Hg10 mi
6:52 PM55 °FPassing clouds.8 mph53%30.04 "Hg10 mi
5:52 PM58 °FPassing clouds.10 mph46%30.04 "Hg10 mi
Weather by CustomWeather, © 2014

See weather overviewHow to use our weather pages